This is the latest recevied weather packets stored in our database for station/object KI4HRG. If no packets are shown the sender has not sent any weather packets the latest 10 day(s).
| Time | Temp. | Humidity | Pressure | Rain* | Wind** | Luminosity | Snow |
|---|---|---|---|---|---|---|---|
| 1787503952 | 31.11° C | 68% | 1017.1 hPa | 0 mm | - | 705 W/m² | - |
| 1787503646 | 31.67° C | 67% | 1016.9 hPa | 0 mm | - | 168 W/m² | - |
| 1787503344 | 31.11° C | 68% | 1017 hPa | 0 mm | - | 707 W/m² | - |
| 1787503043 | 30.56° C | 70% | 1017.2 hPa | 0 mm | - | 686 W/m² | - |
| 1787502739 | 31.11° C | 69% | 1017.1 hPa | 0 mm | - | 707 W/m² | - |
| 1787502434 | 32.22° C | 65% | 1017.3 hPa | 0 mm | - | 707 W/m² | - |
| 1787502133 | 31.11° C | 68% | 1017.4 hPa | 0 mm | - | 694 W/m² | - |
| 1787501830 | 31.67° C | 67% | 1017.5 hPa | 0 mm | - | 658 W/m² | - |
| 1787501526 | 30.56° C | 71% | 1017.5 hPa | 0 mm | - | 322 W/m² | - |
| 1787501221 | 30° C | 70% | 1017.3 hPa | 0 mm | - | 733 W/m² | - |
| 1787500917 | 29.44° C | 73% | 1017.4 hPa | 0 mm | - | 691 W/m² | - |
| 1787500613 | 30° C | 73% | 1017.4 hPa | 0 mm | - | 707 W/m² | - |
| 1787500309 | 30° C | 74% | 1017.2 hPa | 0 mm | - | 741 W/m² | - |
| 1787500008 | 30° C | 72% | 1017.4 hPa | 0 mm | - | 751 W/m² | - |
| 1787499703 | 30° C | 73% | 1017.2 hPa | 0 mm | - | 737 W/m² | - |
| 1787499403 | 30° C | 73% | 1017.6 hPa | 0 mm | - | 711 W/m² | - |
| 1787499098 | 29.44° C | 74% | 1017.3 hPa | 0 mm | - | 721 W/m² | - |
| 1787498796 | 29.44° C | 74% | 1017.5 hPa | 0 mm | - | 693 W/m² | - |
| 1787498492 | 29.44° C | 74% | 1017.4 hPa | 0 mm | - | 752 W/m² | - |
| 1787498188 | 28.89° C | 76% | 1017.5 hPa | 0 mm | - | 789 W/m² | - |
| 1787497884 | 28.33° C | 77% | 1017.2 hPa | 0 mm | - | 635 W/m² | - |
| 1787497579 | 27.22° C | 79% | 1017.3 hPa | 0 mm | - | 645 W/m² | - |
| 1787497274 | 27.22° C | 80% | 1017.4 hPa | 0 mm | - | 333 W/m² | - |
| 1787496974 | 27.22° C | 80% | 1017.2 hPa | 0 mm | - | 314 W/m² | - |
| 1787496673 | 27.78° C | 80% | 1017.1 hPa | 0 mm | - | 291 W/m² | - |
* Rain latest hour (hover to see other rain measurements)
** Current wind speed in m/s (hover to see current wind gust speed)